YZR7920 ZWWW-ZSNJ

Flight info

Callsign YZR7920
Flight time N/A
Altitude 33100
Route VARMI W190 ADPET W188 LIKMI W270 DKO W64 NUTLO B208 CGO W129 KAMDA W128 FYG B208 HFE
Aircraft B77L/H-SDE2E3FGILRWXY/LB2

Departure

Time 2026-04-22 01:16
Airport Ürümqi Tianshan International Airport (ZWWW)

Arrival

Time N/A
Airport Nanjing Lukou International Airport (ZSNJ)
Time Latitude Longitude Altitude Speed Heading
2026-04-22 00:12 43.91380 87.49255 2142 ft 0 kts 162°
2026-04-22 01:01 43.91381 87.49255 2142 ft 1 kts 162°
2026-04-22 01:01 43.91391 87.49251 2142 ft 2 kts 162°
2026-04-22 01:01 43.91405 87.49245 2142 ft 2 kts 162°
2026-04-22 01:02 43.91424 87.49236 2142 ft 2 kts 166°
2026-04-22 01:02 43.91434 87.49235 2142 ft 2 kts 186°
2026-04-22 01:02 43.91448 87.49240 2142 ft 2 kts 209°
2026-04-22 01:02 43.91460 87.49253 2142 ft 2 kts 231°
2026-04-22 01:03 43.91467 87.49269 2142 ft 0 kts 252°
2026-04-22 01:03 43.91468 87.49276 2142 ft 0 kts 253°
2026-04-22 01:06 43.91468 87.49275 2141 ft 0 kts 253°
2026-04-22 01:07 43.91467 87.49271 2141 ft 1 kts 253°
2026-04-22 01:07 43.91465 87.49262 2142 ft 2 kts 253°
2026-04-22 01:07 43.91460 87.49236 2141 ft 3 kts 253°
2026-04-22 01:07 43.91449 87.49183 2142 ft 5 kts 253°
2026-04-22 01:08 43.91441 87.49146 2142 ft 6 kts 253°
2026-04-22 01:08 43.91450 87.49089 2142 ft 6 kts 313°
2026-04-22 01:08 43.91518 87.49053 2141 ft 8 kts 342°
2026-04-22 01:08 43.91559 87.49035 2141 ft 9 kts 343°
2026-04-22 01:09 43.91626 87.49007 2141 ft 10 kts 343°
2026-04-22 01:09 43.91726 87.48967 2141 ft 11 kts 343°
2026-04-22 01:09 43.91780 87.48945 2141 ft 12 kts 343°
2026-04-22 01:09 43.91866 87.48910 2141 ft 13 kts 343°
2026-04-22 01:10 43.91955 87.48873 2141 ft 13 kts 343°
2026-04-22 01:10 43.92082 87.48822 2141 ft 14 kts 342°
2026-04-22 01:10 43.92147 87.48794 2141 ft 14 kts 343°
2026-04-22 01:10 43.92247 87.48752 2141 ft 15 kts 342°
2026-04-22 01:11 43.92350 87.48709 2141 ft 15 kts 343°
2026-04-22 01:11 43.92441 87.48672 2141 ft 9 kts 343°
2026-04-22 01:11 43.92517 87.48692 2141 ft 10 kts 66°
2026-04-22 01:11 43.92541 87.48785 2141 ft 10 kts 73°
2026-04-22 01:12 43.92556 87.48852 2141 ft 11 kts 73°
2026-04-22 01:12 43.92578 87.48957 2141 ft 11 kts 73°
2026-04-22 01:12 43.92610 87.49106 2141 ft 12 kts 73°
2026-04-22 01:12 43.92626 87.49182 2141 ft 12 kts 73°
2026-04-22 01:13 43.92651 87.49301 2141 ft 13 kts 73°
2026-04-22 01:13 43.92673 87.49400 2141 ft 9 kts 66°
2026-04-22 01:13 43.92733 87.49425 2141 ft 10 kts 347°
2026-04-22 01:13 43.92802 87.49397 2141 ft 5 kts 343°
2026-04-22 01:14 43.92830 87.49360 2141 ft 6 kts 289°
2026-04-22 01:14 43.92824 87.49271 2141 ft 0 kts 253°
2026-04-22 01:14 43.92822 87.49260 2141 ft 7 kts 253°
2026-04-22 01:15 43.92749 87.48918 2141 ft 69 kts 253°
2026-04-22 01:15 43.92553 87.47994 2141 ft 129 kts 252°
2026-04-22 01:15 43.92253 87.46562 2153 ft 179 kts 251°
2026-04-22 01:15 43.91873 87.44754 2393 ft 202 kts 252°
2026-04-22 01:16 43.91502 87.42855 3031 ft 208 kts 260°
2026-04-22 01:16 43.91687 87.40291 3867 ft 210 kts 290°
2026-04-22 01:16 43.92150 87.39075 4001 ft 223 kts 306°
2026-04-22 01:16 43.93366 87.37620 4216 ft 241 kts 333°
2026-04-22 01:17 43.95022 87.37073 4462 ft 256 kts 360°
2026-04-22 01:17 43.96853 87.37149 4956 ft 267 kts
2026-04-22 01:17 43.98696 87.37461 5515 ft 273 kts 20°
2026-04-22 01:17 44.00307 87.38819 6148 ft 274 kts 48°
2026-04-22 01:18 44.01505 87.41875 7061 ft 274 kts 72°
2026-04-22 01:18 44.01868 87.43549 7525 ft 276 kts 74°
2026-04-22 01:18 44.02370 87.46103 8139 ft 280 kts 74°
2026-04-22 01:18 44.02885 87.48749 8726 ft 285 kts 73°
2026-04-22 01:19 44.03538 87.51312 9257 ft 287 kts 57°
2026-04-22 01:19 44.04866 87.53377 9800 ft 288 kts 32°
2026-04-22 01:19 44.07335 87.54816 10383 ft 298 kts 14°
2026-04-22 01:19 44.08680 87.55308 10558 ft 308 kts 12°
2026-04-22 01:20 44.11555 87.56293 10959 ft 330 kts 12°
2026-04-22 01:20 44.13823 87.57151 11274 ft 346 kts 18°
2026-04-22 01:20 44.15332 87.57970 11511 ft 356 kts 20°
2026-04-22 01:20 44.17678 87.59325 11826 ft 371 kts 21°
2026-04-22 01:21 44.25633 87.63946 13729 ft 396 kts 20°
2026-04-22 01:21 44.28194 87.65433 14502 ft 401 kts 21°
2026-04-22 01:22 44.30755 87.66922 15204 ft 406 kts 21°
2026-04-22 01:22 44.33288 87.68758 15929 ft 412 kts 31°
2026-04-22 01:22 44.35559 87.71176 16637 ft 419 kts 39°
2026-04-22 01:22 44.37752 87.73930 17328 ft 424 kts 40°
2026-04-22 01:23 44.39934 87.76706 18032 ft 428 kts 40°
2026-04-22 01:23 44.42143 87.79517 18728 ft 433 kts 40°
2026-04-22 01:23 44.44371 87.82354 19378 ft 438 kts 40°
2026-04-22 01:23 44.46627 87.85228 20055 ft 443 kts 40°
2026-04-22 01:24 44.48905 87.88133 20724 ft 447 kts 40°
2026-04-22 01:24 44.51168 87.91136 21358 ft 452 kts 45°
2026-04-22 01:24 44.53115 87.94560 21955 ft 459 kts 54°
2026-04-22 01:24 44.54689 87.98508 22531 ft 466 kts 64°
2026-04-22 01:25 44.55791 88.02808 23126 ft 472 kts 74°
2026-04-22 01:25 44.56386 88.07285 23682 ft 478 kts 83°
2026-04-22 01:25 44.56460 88.11958 24230 ft 482 kts 93°
2026-04-22 01:25 44.56076 88.16621 24780 ft 486 kts 98°
2026-04-22 01:26 44.55597 88.21326 25324 ft 489 kts 98°
2026-04-22 01:26 44.55131 88.26068 25822 ft 494 kts 97°
2026-04-22 01:26 44.54676 88.30835 26343 ft 497 kts 97°
2026-04-22 01:26 44.54228 88.35596 26898 ft 500 kts 97°
2026-04-22 01:27 44.53772 88.40475 27432 ft 503 kts 97°
2026-04-22 01:27 44.53324 88.45288 27920 ft 507 kts 97°
2026-04-22 01:27 44.52867 88.50210 28416 ft 511 kts 97°
2026-04-22 01:27 44.52417 88.55169 28931 ft 515 kts 97°
2026-04-22 01:28 44.51984 88.60084 29509 ft 516 kts 97°
2026-04-22 01:28 44.51542 88.65089 30233 ft 515 kts 97°
2026-04-22 01:28 44.51105 88.70019 31027 ft 511 kts 97°
2026-04-22 01:28 44.50666 88.74947 31714 ft 509 kts 97°
2026-04-22 01:29 44.50221 88.79926 32273 ft 509 kts 97°
2026-04-22 01:29 44.49775 88.84888 32804 ft 509 kts 97°
2026-04-22 01:29 44.49327 88.89856 33106 ft 511 kts 97°
2026-04-22 01:29 44.48875 88.94840 33114 ft 511 kts 97°
2026-04-22 01:30 44.47975 89.04684 33116 ft 508 kts 97°
2026-04-22 01:30 44.47058 89.14519 33118 ft 508 kts 97°
2026-04-22 01:31 44.46129 89.24313 33121 ft 508 kts 97°
2026-04-22 01:31 44.45190 89.34122 33124 ft 508 kts 97°
2026-04-22 01:32 44.44239 89.43972 33125 ft 509 kts 97°
2026-04-22 01:32 44.43290 89.53713 33128 ft 508 kts 97°
2026-04-22 01:33 44.42323 89.63546 33131 ft 507 kts 97°
2026-04-22 01:33 44.40909 89.73219 33135 ft 509 kts 106°
2026-04-22 01:34 44.38878 89.82660 33132 ft 508 kts 107°
2026-04-22 01:34 44.36828 89.92094 33134 ft 509 kts 107°
2026-04-22 01:35 44.34759 90.01579 33138 ft 507 kts 106°
2026-04-22 01:35 44.32683 90.11056 33143 ft 508 kts 106°
2026-04-22 01:36 44.30594 90.20552 33145 ft 509 kts 106°
2026-04-22 01:36 44.28507 90.29997 33147 ft 507 kts 106°
2026-04-22 01:37 44.26409 90.39448 33148 ft 508 kts 106°
2026-04-22 01:37 44.24309 90.48871 33153 ft 508 kts 106°
2026-04-22 01:38 44.22211 90.58241 33153 ft 507 kts 105°
2026-04-22 01:38 44.20087 90.67685 33148 ft 507 kts 107°
2026-04-22 01:39 44.17975 90.77037 33152 ft 508 kts 106°
2026-04-22 01:39 44.15857 90.86372 33155 ft 506 kts 106°
2026-04-22 01:40 44.13744 90.95647 33153 ft 507 kts 106°
2026-04-22 01:40 44.11614 91.04958 33152 ft 507 kts 106°
2026-04-22 01:41 44.09470 91.14299 33163 ft 508 kts 106°
2026-04-22 01:41 44.07309 91.23674 33164 ft 507 kts 106°
2026-04-22 01:42 44.05156 91.32973 33177 ft 508 kts 106°
2026-04-22 01:42 44.02982 91.42326 33182 ft 508 kts 105°
2026-04-22 01:43 44.00782 91.51672 33192 ft 510 kts 106°
2026-04-22 01:43 43.98559 91.61054 33196 ft 508 kts 105°
2026-04-22 01:44 43.96340 91.70385 33198 ft 510 kts 106°
2026-04-22 01:44 43.94110 91.79723 33203 ft 510 kts 106°
2026-04-22 01:45 43.91881 91.89020 33206 ft 510 kts 106°
2026-04-22 01:45 43.89634 91.98351 33199 ft 510 kts 105°
2026-04-22 01:46 43.87396 92.07610 33194 ft 510 kts 105°
2026-04-22 01:46 43.85147 92.16878 33192 ft 510 kts 105°
2026-04-22 01:47 43.82883 92.26167 33197 ft 510 kts 105°
2026-04-22 01:47 43.80616 92.35431 33196 ft 509 kts 105°
2026-04-22 01:48 43.78315 92.44795 33196 ft 509 kts 105°
2026-04-22 01:48 43.77564 92.47845 33196 ft 509 kts 105°
2026-04-22 01:49 43.75158 92.57585 33199 ft 509 kts 105°
2026-04-22 01:50 43.69421 92.80642 33196 ft 509 kts 106°
2026-04-22 01:51 43.64864 92.98792 33196 ft 508 kts 106°
2026-04-22 01:52 43.61811 93.11520 33197 ft 508 kts 105°
2026-04-22 01:52 43.57841 93.28101 33197 ft 508 kts 105°
2026-04-22 01:53 43.55616 93.37324 33196 ft 507 kts 105°
2026-04-22 01:53 43.53364 93.46616 33199 ft 508 kts 105°
2026-04-22 01:54 43.51109 93.55881 33201 ft 508 kts 105°
2026-04-22 01:54 43.48851 93.65120 33201 ft 507 kts 105°
2026-04-22 01:55 43.46596 93.74309 33198 ft 507 kts 106°
2026-04-22 01:55 43.44338 93.83472 33201 ft 508 kts 105°
2026-04-22 01:56 43.42073 93.92625 33214 ft 508 kts 105°
2026-04-22 01:56 43.39793 94.01801 33207 ft 508 kts 105°
2026-04-22 01:57 43.37514 94.10940 33215 ft 508 kts 106°
2026-04-22 01:57 43.35201 94.20180 33201 ft 508 kts 105°
2026-04-22 01:58 43.32898 94.29339 33202 ft 508 kts 106°
2026-04-22 01:58 43.30571 94.38561 33209 ft 509 kts 105°
2026-04-22 01:59 43.28242 94.47752 33214 ft 509 kts 106°
2026-04-22 01:59 43.25904 94.56943 33213 ft 508 kts 106°
2026-04-22 02:00 43.23555 94.66145 33220 ft 509 kts 107°
2026-04-22 02:00 43.21212 94.75281 33218 ft 509 kts 107°
2026-04-22 02:01 43.18869 94.84384 33221 ft 510 kts 107°
2026-04-22 02:01 43.16518 94.93487 33223 ft 510 kts 107°
2026-04-22 02:02 43.13897 95.02543 33229 ft 513 kts 116°
2026-04-22 02:02 43.09684 95.10338 33224 ft 519 kts 134°
2026-04-22 02:03 43.04021 95.16454 33233 ft 519 kts 144°
2026-04-22 02:03 42.98099 95.22054 33227 ft 518 kts 145°
2026-04-22 02:04 42.89196 95.30379 33223 ft 518 kts 145°
2026-04-22 02:05 42.83250 95.35902 33225 ft 518 kts 145°
2026-04-22 02:05 42.77327 95.41382 33222 ft 518 kts 145°
2026-04-22 02:06 42.71388 95.46860 33220 ft 518 kts 145°
2026-04-22 02:06 42.65408 95.52361 33220 ft 517 kts 145°
2026-04-22 02:07 42.59419 95.57855 33223 ft 517 kts 145°
2026-04-22 02:07 42.53466 95.63303 33233 ft 516 kts 145°
2026-04-22 02:08 42.47567 95.68834 33222 ft 517 kts 140°
2026-04-22 02:08 42.42713 95.75878 33222 ft 514 kts 123°
2026-04-22 02:09 42.39593 95.84500 33246 ft 510 kts 105°
2026-04-22 02:09 42.38451 95.93835 33242 ft 503 kts 90°
2026-04-22 02:10 42.38152 96.03234 33255 ft 504 kts 89°
2026-04-22 02:10 42.37871 96.12693 33249 ft 503 kts 89°
2026-04-22 02:11 42.37589 96.22150 33238 ft 504 kts 89°
2026-04-22 02:11 42.37305 96.31522 33240 ft 504 kts 89°
2026-04-22 02:12 42.37011 96.41001 33244 ft 503 kts 89°
2026-04-22 02:12 42.36712 96.50434 33243 ft 504 kts 89°
2026-04-22 02:13 42.36407 96.59827 33245 ft 503 kts 89°
2026-04-22 02:13 42.36092 96.69302 33247 ft 503 kts 90°
2026-04-22 02:14 42.35773 96.78685 33247 ft 503 kts 90°
2026-04-22 02:14 42.35443 96.88146 33245 ft 503 kts 90°
2026-04-22 02:15 42.35107 96.97570 33240 ft 503 kts 90°
2026-04-22 02:15 42.34764 97.06966 33237 ft 504 kts 90°
2026-04-22 02:16 42.34411 97.16420 33243 ft 503 kts 90°
2026-04-22 02:16 42.34050 97.25889 33242 ft 503 kts 90°
2026-04-22 02:17 42.33682 97.35325 33241 ft 503 kts 90°
2026-04-22 02:17 42.33308 97.44722 33231 ft 503 kts 90°
2026-04-22 02:18 42.32924 97.54168 33238 ft 503 kts 90°
2026-04-22 02:18 42.32532 97.63622 33232 ft 504 kts 90°
2026-04-22 02:19 42.32133 97.73054 33224 ft 503 kts 91°
2026-04-22 02:19 42.31729 97.82446 33223 ft 504 kts 91°
2026-04-22 02:20 42.31316 97.91841 33224 ft 503 kts 91°
2026-04-22 02:20 42.30895 98.01264 33221 ft 503 kts 91°
2026-04-22 02:21 42.30463 98.10742 33219 ft 503 kts 91°
2026-04-22 02:21 42.30027 98.20140 33224 ft 502 kts 91°
2026-04-22 02:22 42.29579 98.29603 33221 ft 501 kts 91°
2026-04-22 02:22 42.29115 98.38966 33217 ft 502 kts 91°
2026-04-22 02:23 42.28630 98.48373 33212 ft 501 kts 91°
2026-04-22 02:23 42.28137 98.57813 33211 ft 501 kts 91°
2026-04-22 02:24 42.27638 98.67207 33209 ft 500 kts 91°
2026-04-22 02:24 42.27136 98.76542 33204 ft 501 kts 92°
2026-04-22 02:25 42.26624 98.85905 33203 ft 500 kts 91°
2026-04-22 02:25 42.26107 98.95225 33208 ft 498 kts 91°
2026-04-22 02:26 42.25582 99.04549 33211 ft 499 kts 91°
2026-04-22 02:26 42.25049 99.13892 33202 ft 499 kts 91°
2026-04-22 02:27 42.24507 99.23252 33190 ft 497 kts 91°
2026-04-22 02:27 42.23959 99.32584 33190 ft 498 kts 91°
2026-04-22 02:28 42.23403 99.41907 33189 ft 497 kts 91°
2026-04-22 02:28 42.22842 99.51205 33190 ft 497 kts 91°
2026-04-22 02:29 42.22277 99.60436 33184 ft 496 kts 91°
2026-04-22 02:29 42.21703 99.69700 33171 ft 496 kts 92°
2026-04-22 02:30 42.21123 99.78935 33173 ft 496 kts 92°
2026-04-22 02:30 42.20532 99.88213 33165 ft 495 kts 92°
2026-04-22 02:31 42.19937 99.97452 33160 ft 495 kts 92°
2026-04-22 02:31 42.19334 100.06688 33159 ft 495 kts 92°
2026-04-22 02:32 42.18721 100.15966 33155 ft 495 kts 92°
2026-04-22 02:32 42.18104 100.25182 33158 ft 495 kts 92°
2026-04-22 02:33 42.17478 100.34430 33156 ft 495 kts 92°
2026-04-22 02:33 42.16843 100.43694 33154 ft 496 kts 92°
2026-04-22 02:34 42.16202 100.52935 33153 ft 495 kts 92°
2026-04-22 02:34 42.15553 100.62187 33151 ft 495 kts 92°
2026-04-22 02:35 42.14898 100.71419 33147 ft 496 kts 93°
2026-04-22 02:35 42.14237 100.80619 33145 ft 495 kts 93°
2026-04-22 02:36 42.13565 100.89877 33144 ft 495 kts 93°
2026-04-22 02:36 42.12890 100.99064 33136 ft 495 kts 93°
2026-04-22 02:37 42.11438 101.08112 33146 ft 499 kts 106°
2026-04-22 02:37 42.09161 101.17001 33140 ft 500 kts 107°
2026-04-22 02:38 42.06862 101.25829 33137 ft 499 kts 107°
2026-04-22 02:38 42.04559 101.34614 33139 ft 499 kts 107°
2026-04-22 02:39 42.02239 101.43417 33139 ft 499 kts 107°
2026-04-22 02:39 41.99908 101.52219 33141 ft 499 kts 107°
2026-04-22 02:40 41.97576 101.60994 33135 ft 498 kts 107°
2026-04-22 02:40 41.95237 101.69757 33144 ft 498 kts 108°
2026-04-22 02:41 41.92895 101.78500 33139 ft 498 kts 107°
2026-04-22 02:41 41.90561 101.87184 33137 ft 498 kts 107°
2026-04-22 02:42 41.88213 101.95887 33137 ft 497 kts 107°
2026-04-22 02:42 41.85849 102.04622 33132 ft 497 kts 107°
2026-04-22 02:43 41.83496 102.13281 33141 ft 496 kts 107°
2026-04-22 02:43 41.81137 102.21932 33141 ft 496 kts 107°
2026-04-22 02:44 41.78760 102.30621 33132 ft 496 kts 107°
2026-04-22 02:44 41.76377 102.39301 33158 ft 495 kts 107°
2026-04-22 02:45 41.73981 102.47997 33165 ft 493 kts 107°
2026-04-22 02:45 41.71578 102.56687 33169 ft 494 kts 107°
2026-04-22 02:46 41.69182 102.65323 33162 ft 493 kts 108°
2026-04-22 02:46 41.66801 102.73878 33158 ft 494 kts 108°
2026-04-22 02:47 41.64393 102.82505 33167 ft 494 kts 108°
2026-04-22 02:47 41.61989 102.91087 33173 ft 493 kts 108°
2026-04-22 02:48 41.59592 102.99616 33179 ft 492 kts 108°
2026-04-22 02:48 41.57177 103.08175 33177 ft 493 kts 108°
2026-04-22 02:49 41.54764 103.16695 33174 ft 493 kts 108°
2026-04-22 02:49 41.52333 103.25251 33188 ft 492 kts 108°
2026-04-22 02:50 41.49894 103.33806 33164 ft 493 kts 108°
2026-04-22 02:50 41.47453 103.42339 33175 ft 493 kts 108°
2026-04-22 02:51 41.45013 103.50841 33174 ft 493 kts 108°
2026-04-22 02:51 41.42550 103.59396 33166 ft 493 kts 108°
2026-04-22 02:52 41.40093 103.67902 33183 ft 495 kts 109°
2026-04-22 02:52 41.37616 103.76447 33185 ft 494 kts 109°
2026-04-22 02:53 41.35141 103.84956 33158 ft 496 kts 109°
2026-04-22 02:53 41.32650 103.93494 33179 ft 496 kts 109°
2026-04-22 02:54 41.30153 104.02021 33171 ft 495 kts 109°
2026-04-22 02:54 41.27636 104.10593 33156 ft 497 kts 109°
2026-04-22 02:55 41.25120 104.19130 33181 ft 499 kts 109°
2026-04-22 02:55 41.22597 104.27663 33177 ft 498 kts 109°
2026-04-22 02:56 41.20065 104.36201 33172 ft 500 kts 109°
2026-04-22 02:56 41.17518 104.44761 33171 ft 500 kts 110°
2026-04-22 02:57 41.14939 104.53397 33185 ft 501 kts 110°
2026-04-22 02:57 41.12385 104.61925 33177 ft 501 kts 110°
2026-04-22 02:58 41.09794 104.70547 33193 ft 503 kts 111°
2026-04-22 02:58 41.06981 104.79025 33202 ft 504 kts 114°
2026-04-22 02:59 41.04096 104.87505 33198 ft 504 kts 114°
2026-04-22 02:59 41.01235 104.95921 33219 ft 505 kts 114°
2026-04-22 03:00 40.98365 105.04354 33203 ft 506 kts 114°
2026-04-22 03:00 40.95476 105.12828 33200 ft 505 kts 114°
2026-04-22 03:01 40.92588 105.21279 33206 ft 508 kts 114°
2026-04-22 03:01 40.89661 105.29823 33208 ft 509 kts 114°
2026-04-22 03:02 40.86749 105.38296 33204 ft 510 kts 114°
2026-04-22 03:02 40.83800 105.46853 33205 ft 511 kts 114°
2026-04-22 03:03 40.80843 105.55407 33205 ft 514 kts 114°
2026-04-22 03:03 40.77891 105.63921 33207 ft 513 kts 115°
2026-04-22 03:04 40.74912 105.72488 33206 ft 515 kts 115°
2026-04-22 03:04 40.71936 105.81022 33210 ft 515 kts 116°
2026-04-22 03:05 40.68935 105.89597 33212 ft 515 kts 116°
2026-04-22 03:05 40.65938 105.98138 33205 ft 518 kts 116°
2026-04-22 03:06 40.62905 106.06757 33205 ft 518 kts 116°
2026-04-22 03:06 40.59876 106.15337 33207 ft 519 kts 116°
2026-04-22 03:07 40.56830 106.23940 33202 ft 520 kts 116°
2026-04-22 03:07 40.53761 106.32581 33194 ft 522 kts 116°
2026-04-22 03:08 40.50687 106.41210 33184 ft 520 kts 116°
2026-04-22 03:08 40.47615 106.49809 33178 ft 523 kts 117°
2026-04-22 03:09 40.44512 106.58467 33177 ft 524 kts 117°
2026-04-22 03:09 40.41426 106.67055 33173 ft 523 kts 118°
2026-04-22 03:10 40.38318 106.75676 33172 ft 524 kts 118°
2026-04-22 03:10 40.35194 106.84316 33171 ft 525 kts 118°
2026-04-22 03:11 40.32302 106.93048 33171 ft 529 kts 109°
2026-04-22 03:11 40.31111 107.02591 33158 ft 533 kts 91°
2026-04-22 03:12 40.31533 107.12263 33182 ft 536 kts 85°
2026-04-22 03:12 40.32346 107.26806 33184 ft 537 kts 86°
2026-04-22 03:13 40.32853 107.36552 33185 ft 537 kts 86°
2026-04-22 03:13 40.33341 107.46263 33181 ft 536 kts 86°
2026-04-22 03:14 40.33816 107.56027 33174 ft 539 kts 86°
2026-04-22 03:14 40.34280 107.65778 33180 ft 539 kts 87°
2026-04-22 03:15 40.34736 107.75576 33176 ft 541 kts 87°
2026-04-22 03:15 40.35181 107.85346 33167 ft 540 kts 87°
2026-04-22 03:16 40.35619 107.95155 33162 ft 539 kts 87°
2026-04-22 03:16 40.36042 108.05012 33178 ft 544 kts 87°
2026-04-22 03:17 40.36436 108.14856 33179 ft 541 kts 87°
2026-04-22 03:17 40.36822 108.24692 33185 ft 543 kts 87°
2026-04-22 03:18 40.37198 108.34486 33174 ft 540 kts 87°
2026-04-22 03:18 40.37569 108.44357 33170 ft 545 kts 87°
2026-04-22 03:19 40.37932 108.54239 33187 ft 546 kts 87°
2026-04-22 03:19 40.38289 108.64192 33175 ft 545 kts 87°
2026-04-22 03:20 40.38636 108.74095 33183 ft 546 kts 88°
2026-04-22 03:20 40.38974 108.83968 33168 ft 547 kts 88°
2026-04-22 03:21 40.39306 108.93942 33174 ft 546 kts 88°
2026-04-22 03:21 40.39628 109.03832 33175 ft 547 kts 88°
2026-04-22 03:22 40.39945 109.13877 33169 ft 547 kts 88°
2026-04-22 03:22 40.40252 109.23841 33176 ft 547 kts 88°
2026-04-22 03:23 40.40550 109.33810 33173 ft 553 kts 88°
2026-04-22 03:23 40.40841 109.43856 33175 ft 550 kts 88°
2026-04-22 03:24 40.41123 109.53875 33177 ft 550 kts 88°
2026-04-22 03:24 40.41398 109.63955 33180 ft 553 kts 88°
2026-04-22 03:25 40.41665 109.74027 33180 ft 550 kts 89°
2026-04-22 03:25 40.41922 109.84103 33188 ft 558 kts 89°
2026-04-22 03:26 40.42171 109.94206 33180 ft 553 kts 89°
2026-04-22 03:26 40.42287 110.04298 33188 ft 557 kts 92°
2026-04-22 03:27 40.42214 110.14442 33195 ft 554 kts 91°
2026-04-22 03:27 40.42141 110.24583 33193 ft 556 kts 91°
2026-04-22 03:28 40.42065 110.34644 33195 ft 558 kts 91°
2026-04-22 03:28 40.41984 110.44798 33193 ft 556 kts 91°
2026-04-22 03:29 40.41897 110.54940 33196 ft 554 kts 91°
2026-04-22 03:29 40.41802 110.65078 33202 ft 556 kts 92°
2026-04-22 03:30 40.41700 110.75183 33179 ft 554 kts 92°
2026-04-22 03:30 40.41587 110.85371 33182 ft 559 kts 92°
2026-04-22 03:31 40.41467 110.95538 33189 ft 557 kts 92°
2026-04-22 03:31 40.41338 111.05720 33191 ft 560 kts 91°
2026-04-22 03:32 40.41199 111.15952 33192 ft 561 kts 92°
2026-04-22 03:32 40.41051 111.26173 33194 ft 560 kts 92°
2026-04-22 03:33 40.40892 111.36448 33189 ft 563 kts 92°
2026-04-22 03:33 40.40725 111.46684 33197 ft 562 kts 92°
2026-04-22 03:34 40.40546 111.56967 33197 ft 561 kts 91°
2026-04-22 03:34 40.40361 111.67163 33196 ft 565 kts 92°
2026-04-22 03:35 40.40167 111.77396 33191 ft 564 kts 92°
2026-04-22 03:35 40.39962 111.87659 33197 ft 565 kts 93°
2026-04-22 03:36 40.39230 111.97865 33200 ft 562 kts 106°
2026-04-22 03:36 40.36552 112.07381 33191 ft 553 kts 123°
2026-04-22 03:37 40.32087 112.15516 33197 ft 544 kts 141°
2026-04-22 03:37 40.29351 112.18843 33187 ft 533 kts 149°
2026-04-22 03:37 40.26371 112.21630 33201 ft 520 kts 157°
2026-04-22 03:38 40.23225 112.23856 33199 ft 507 kts 165°
2026-04-22 03:38 40.19935 112.25532 33190 ft 505 kts 172°
2026-04-22 03:38 40.13205 112.26984 33203 ft 479 kts 189°
2026-04-22 03:39 40.09935 112.26711 33188 ft 463 kts 199°
2026-04-22 03:39 40.06840 112.25796 33196 ft 450 kts 207°
2026-04-22 03:39 40.03995 112.24292 33199 ft 434 kts 217°
2026-04-22 03:39 40.01436 112.22271 33218 ft 427 kts 221°
2026-04-22 03:40 39.96538 112.17915 33199 ft 420 kts 223°
2026-04-22 03:40 39.93949 112.15977 33205 ft 435 kts 214°
2026-04-22 03:40 39.91098 112.14622 33213 ft 446 kts 205°
2026-04-22 03:41 39.87967 112.13870 33208 ft 466 kts 196°
2026-04-22 03:41 39.84715 112.13725 33213 ft 470 kts 189°
2026-04-22 03:41 39.78157 112.14248 33217 ft 473 kts 185°
2026-04-22 03:42 39.71530 112.15294 33219 ft 481 kts 182°
2026-04-22 03:42 39.64859 112.16620 33212 ft 485 kts 182°
2026-04-22 03:43 39.58264 112.18070 33218 ft 482 kts 181°
2026-04-22 03:43 39.51559 112.19602 33220 ft 487 kts 181°
2026-04-22 03:44 39.44957 112.21175 33212 ft 479 kts 180°
2026-04-22 03:44 39.38359 112.22771 33217 ft 487 kts 180°
2026-04-22 03:45 39.31771 112.24384 33213 ft 481 kts 180°
2026-04-22 03:45 39.25155 112.25998 33220 ft 484 kts 180°
2026-04-22 03:46 39.18550 112.27614 33220 ft 480 kts 180°
2026-04-22 03:46 39.11937 112.29224 33223 ft 484 kts 180°
2026-04-22 03:47 39.05425 112.30817 33224 ft 477 kts 180°
2026-04-22 03:47 38.98793 112.32422 33221 ft 485 kts 180°
2026-04-22 03:48 38.97695 112.32690 33226 ft 484 kts 180°